| time (UTC) | temp F | wind direction | speed MPH | gust MPH | rain 1hr in | rain 24hr in | rain mn in | humidity % | barometer mb |
| 20260504044536 | 41 | 208 | 0.0 | 0.0 | 0.00 | 0.00 | 0.00 | 79 | 1015.2 |
| 20260504043021 | 42 | 208 | 0.0 | 0.0 | 0.00 | 0.00 | 0.00 | 79 | 1014.9 |
| 20260504041529 | 42 | 208 | 0.0 | 0.0 | 0.00 | 0.00 | 0.00 | 78 | 1014.8 |
| 20260504040032 | 42 | 208 | 0.0 | 0.0 | 0.00 | 0.00 | 0.00 | 75 | 1014.6 |
| 20260504034538 | 43 | 208 | 0.0 | 0.0 | 0.00 | 0.00 | 0.00 | 75 | 1014.5 |
| 20260504033036 | 43 | 208 | 0.0 | 0.0 | 0.00 | 0.00 | 0.00 | 74 | 1014.5 |
| 20260504031503 | 44 | 208 | 0.0 | 0.0 | 0.00 | 0.00 | 0.00 | 71 | 1014.4 |
| 20260504030004 | 44 | 208 | 0.0 | 0.0 | 0.00 | 0.00 | 0.00 | 70 | 1014.4 |
| 20260504024505 | 45 | 208 | 0.0 | 0.0 | 0.00 | 0.00 | 0.00 | 68 | 1014.4 |
| 20260504023004 | 45 | 208 | 0.0 | 0.0 | 0.00 | 0.00 | 0.00 | 65 | 1014.5 |
| 20260504021504 | 46 | 208 | 0.0 | 0.0 | 0.00 | 0.00 | 0.00 | 65 | 1014.4 |
| 20260504020008 | 46 | 208 | 0.0 | 0.0 | 0.00 | 0.00 | 0.00 | 62 | 1014.3 |
| 20260504014505 | 47 | 208 | 0.0 | 0.0 | 0.00 | 0.00 | 0.00 | 60 | 1014.2 |
| 20260504013009 | 48 | 208 | 0.0 | 0.0 | 0.00 | 0.00 | 0.00 | 59 | 1014.1 |
| 20260504011504 | 49 | 208 | 0.0 | 0.0 | 0.00 | 0.00 | 0.00 | 55 | 1013.9 |
| 20260504010008 | 50 | 208 | 0.0 | 0.0 | 0.00 | 0.00 | 0.00 | 52 | 1013.8 |
| 20260504004510 | 51 | 208 | 0.0 | 0.0 | 0.00 | 0.00 | 0.00 | 51 | 1013.7 |
| 20260504003007 | 52 | 208 | 0.0 | 0.0 | 0.00 | 0.00 | 0.00 | 48 | 1013.4 |
| 20260504001508 | 53 | 208 | 0.0 | 0.0 | 0.00 | 0.00 | 0.00 | 43 | 1013.1 |
| 20260504000009 | 55 | 208 | 0.0 | 1.0 | 0.00 | 0.00 | 0.00 | 40 | 1013.1 |
| 20260503234508 | 56 | 221 | 0.0 | 2.0 | 0.00 | 0.00 | 0.00 | 37 | 1013.0 |
| 20260503233009 | 57 | 335 | 0.0 | 3.0 | 0.00 | 0.00 | 0.00 | 38 | 1012.8 |
| 20260503231510 | 57 | 311 | 0.0 | 9.0 | 0.00 | 0.00 | 0.00 | 35 | 1012.8 |
| 20260503230010 | 58 | 291 | 0.0 | 6.0 | 0.00 | 0.00 | 0.00 | 34 | 1012.7 |
| 20260503224507 | 59 | 314 | 1.0 | 3.0 | 0.00 | 0.00 | 0.00 | 33 | 1012.7 |
| 20260503223012 | 59 | 290 | 1.0 | 7.0 | 0.00 | 0.00 | 0.00 | 33 | 1012.5 |
| 20260503221510 | 59 | 138 | 2.0 | 10.0 | 0.00 | 0.00 | 0.00 | 31 | 1012.5 |
| 20260503220012 | 59 | 289 | 2.0 | 7.0 | 0.00 | 0.00 | 0.00 | 31 | 1012.5 |
| 20260503214514 | 59 | 303 | 3.0 | 8.0 | 0.00 | 0.00 | 0.00 | 31 | 1012.5 |
| 20260503213025 | 59 | 96 | 2.0 | 10.0 | 0.00 | 0.00 | 0.00 | 30 | 1012.4 |
| 20260503211518 | 59 | 311 | 1.0 | 9.0 | 0.00 | 0.00 | 0.00 | 32 | 1012.5 |
| 20260503210014 | 59 | 290 | 1.0 | 8.0 | 0.00 | 0.00 | 0.00 | 32 | 1012.6 |
| 20260503204515 | 59 | 284 | 1.0 | 11.0 | 0.00 | 0.00 | 0.00 | 35 | 1012.6 |
| 20260503203016 | 59 | 278 | 2.0 | 7.0 | 0.00 | 0.00 | 0.00 | 34 | 1012.5 |
| 20260503201527 | 59 | 302 | 2.0 | 7.0 | 0.00 | 0.00 | 0.00 | 33 | 1012.9 |
| 20260503200027 | 58 | 14 | 2.0 | 9.0 | 0.00 | 0.00 | 0.00 | 36 | 1012.6 |
| 20260503194523 | 58 | 189 | 2.0 | 9.0 | 0.00 | 0.00 | 0.00 | 35 | 1012.9 |
| 20260503193016 | 58 | 1 | 3.0 | 10.0 | 0.00 | 0.00 | 0.00 | 33 | 1013.1 |
| 20260503191520 | 58 | 248 | 5.0 | 12.0 | 0.00 | 0.00 | 0.00 | 32 | 1013.3 |
| 20260503190022 | 58 | 347 | 1.0 | 10.0 | 0.00 | 0.00 | 0.00 | 35 | 1013.2 |
| 20260503184526 | 58 | 297 | 2.0 | 8.0 | 0.00 | 0.00 | 0.00 | 35 | 1013.4 |
| 20260503183027 | 58 | 307 | 3.0 | 10.0 | 0.00 | 0.00 | 0.00 | 34 | 1013.6 |
| 20260503181523 | 57 | 75 | 1.0 | 10.0 | 0.00 | 0.00 | 0.00 | 34 | 1013.7 |
| 20260503180004 | 57 | 201 | 3.0 | 10.0 | 0.00 | 0.00 | 0.00 | 34 | 1013.7 |
| 20260503174504 | 55 | 268 | 4.0 | 10.0 | 0.00 | 0.00 | 0.00 | 35 | 1013.9 |
| 20260503173040 | 55 | 205 | 4.0 | 10.0 | 0.00 | 0.00 | 0.00 | 36 | 1013.9 |
| 20260503171520 | 56 | 338 | 1.0 | 6.0 | 0.00 | 0.00 | 0.00 | 39 | 1014.1 |
| 20260503081518 | 41 | 288 | 0.0 | 1.0 | 0.00 | 0.00 | 0.00 | 77 | 1011.8 |
| 20260503071509 | 44 | 316 | 0.0 | 0.0 | 0.00 | 0.00 | 0.00 | 71 | 1011.4 |